Darstellungsparameter: Aktuell verwendete Einstellungen:
Skalierung der Graphiken ... ?
xyx+y,   Skalierungsfaktor:      Skalierung: Modus: x, Faktor: 1
Darstellungszeitraum ... ?
Vom - - bis: - -   Zeitraum: 07.03.2014 - 06.06.2014
Min/Max/Avg-Anzeige ... ?
Zeige MMA aktuell
Zeige MMA Monat
Zeige MMA alles
Zeige --A aktuell
Zeige --A Monat
Zeige --A alles
Keine MMA-Anzeige
MMA:
Keine MMA-Graphiken
MMA-Basis: 07.03.2014 - 06.06.2014
Quicknavigation für Darstellung... ?
Tage:      1T, 2T, 3T, 5T -1T -2T -3T -5T +1T +2T +3T +5T
Wochen: 1W, 2W, 3W -1W -2W -3W +1W +2W +3W
Monate: 1M, 3M, 6M -1M -3M -6M +1M +3M +6M
Jahre:    1J, 3J, 5J, 10J -1J -3J -5J -10J +1J +3J +5J +10J
Nutze für die Darstellung ... ?
Originaldaten oder ...
Mittelwerte Minima Maxima auf...
Stundenbasis Tagesbasis Wochenbasis
Monatsbasis Jahresbasis      Datenbasis: Mittelwerte auf Tagesbasis
Darstellen als:
Statistik (Auto) Statistik J:M      Darstellung:
Zur Graphik,    zurück zur Übersicht aller Sensoren.
 
Tabellarische Datenbersicht: ?
 
Sensor: Nr:Datum:Temp:Abs-Feuchte:Windchill:Wind:
Aussen-T/F 1 07-03-2014 00:00:00 6.23037 C 5.95 g/m*3 6.23 C 2.73598 km/h
2 08-03-2014 00:00:00 7.3847 C 6.36 g/m*3 7.38 C 2.94128 km/h
3 09-03-2014 00:00:00 7.27263 C 6.03 g/m*3 7.27 C 1.91719 km/h
4 10-03-2014 00:00:00 7.44444 C 6.02 g/m*3 7.44 C 1.56215 km/h
5 11-03-2014 00:00:00 8.4184 C 6.68 g/m*3 8.42 C 2.50833 km/h
6 12-03-2014 00:00:00 9.07812 C 6.57 g/m*3 9.08 C 3.14514 km/h
7 13-03-2014 00:00:00 8.16007 C 6.13 g/m*3 8.16 C 1.86285 km/h
8 14-03-2014 00:00:00 7.91944 C 6.32 g/m*3 7.92 C 1.97257 km/h
9 15-03-2014 00:00:00 8.97326 C 6.8 g/m*3 7.55 C 9.24688 km/h
10 16-03-2014 00:00:00 11.50486 C 7.98 g/m*3 11.5 C 10.7066 km/h
11 17-03-2014 00:00:00 10.27882 C 7.8 g/m*3 9.64 C 6.60521 km/h
12 18-03-2014 00:00:00 9.4066 C 7.54 g/m*3 8.34 C 7.87396 km/h
13 19-03-2014 00:00:00 12.2875 C 7.65 g/m*3 12.29 C 12.05278 km/h
14 20-03-2014 00:00:00 12.49333 C 7.39 g/m*3 12.49 C 4.57649 km/h
15 21-03-2014 00:00:00 13.1375 C 7.61 g/m*3 13.14 C 12.57292 km/h
16 22-03-2014 00:00:00 8.65208 C 7.16 g/m*3 8.02 C 5.64896 km/h
17 23-03-2014 00:00:00 6.03507 C 5.93 g/m*3 4.78 C 6.43368 km/h
18 24-03-2014 00:00:00 5.42632 C 5.64 g/m*3 5.43 C 3.85123 km/h
19 25-03-2014 00:00:00 4.1625 C 5.3 g/m*3 4.16 C 3.18993 km/h
20 26-03-2014 00:00:00 4.56076 C 5.2 g/m*3 4.56 C 2.72917 km/h
21 27-03-2014 00:00:00 8.14604 C 6.15 g/m*3 7.52 C 5.39424 km/h
22 28-03-2014 00:00:00 10.60972 C 6.49 g/m*3 10.21 C 5.86875 km/h
23 29-03-2014 00:00:00 10.34963 C 6.78 g/m*3 10.35 C 4.26728 km/h
24 30-03-2014 00:00:00 9.15619 C 6.78 g/m*3 9.16 C 1.20571 km/h
25 31-03-2014 00:00:00 12.96562 C 7.46 g/m*3 12.97 C 2.47465 km/h
Sensor: Nr:Datum:Temp:Abs-Feuchte:Windchill:Wind:
Aussen-T/F 26 01-04-2014 00:00:00 13.77519 C 8.06 g/m*3 13.78 C 1.80534 km/h
27 02-04-2014 00:00:00 13.90458 C 8.27 g/m*3 13.9 C 3.20599 km/h
28 03-04-2014 00:00:00 12.54324 C 8.55 g/m*3 12.54 C 1.61982 km/h
29 04-04-2014 00:00:00 14.95971 C 9.58 g/m*3 14.96 C 3.16978 km/h
30 05-04-2014 00:00:00 13.00531 C 9.79 g/m*3 13.01 C 5.39306 km/h
31 06-04-2014 00:00:00 11.67782 C 8.68 g/m*3 11.68 C 3.62929 km/h
32 07-04-2014 00:00:00 15.95041 C 10.25 g/m*3 15.95 C 3.93156 km/h
33 08-04-2014 00:00:00 12.18521 C 7.24 g/m*3 12.19 C 11.97359 km/h
34 09-04-2014 00:00:00 9.27426 C 6.81 g/m*3 8.78 C 5.50551 km/h
35 10-04-2014 00:00:00 10.31543 C 7.39 g/m*3 10.32 C 4.19383 km/h
36 11-04-2014 00:00:00 14.56849 C 9.05 g/m*3 14.57 C 5.96781 km/h
37 12-04-2014 00:00:00 12.65368 C 7.87 g/m*3 12.65 C 4.22737 km/h
38 13-04-2014 00:00:00 11.60669 C 7.39 g/m*3 11.61 C 4.19718 km/h
39 14-04-2014 00:00:00 9.7593 C 6.59 g/m*3 8.1 C 11.48316 km/h
40 15-04-2014 00:00:00 7.10171 C 5.76 g/m*3 5.67 C 7.72051 km/h
41 16-04-2014 00:00:00 12.97192 C 5.6 g/m*3 12.97 C 7.55616 km/h
42 17-04-2014 00:00:00 9.85313 C 5.89 g/m*3 9.85 C 3.16701 km/h
43 18-04-2014 00:00:00 10.72049 C 6.38 g/m*3 9.49 C 10.00833 km/h
44 19-04-2014 00:00:00 10.82049 C 7.12 g/m*3 10.39 C 6.11667 km/h
45 20-04-2014 00:00:00 14.91825 C 9 g/m*3 14.92 C 4.86456 km/h
46 21-04-2014 00:00:00 12.49479 C 8.57 g/m*3 12.49 C 3.51771 km/h
47 22-04-2014 00:00:00 12.82847 C 9.61 g/m*3 12.83 C 3.55035 km/h
48 23-04-2014 00:00:00 13.43958 C 9.46 g/m*3 13.44 C 1.6441 km/h
49 24-04-2014 00:00:00 15.42535 C 10.4 g/m*3 15.43 C 2.21042 km/h
50 25-04-2014 00:00:00 16.71562 C 10.55 g/m*3 16.72 C 3.36146 km/h
Sensor: Nr:Datum:Temp:Abs-Feuchte:Windchill:Wind:
Aussen-T/F 51 26-04-2014 00:00:00 15.2 C 9.7 g/m*3 15.2 C 2.60104 km/h
52 27-04-2014 00:00:00 13.07674 C 9.32 g/m*3 13.08 C 3.42431 km/h
53 28-04-2014 00:00:00 12.80243 C 8.95 g/m*3 12.8 C 2.25833 km/h
54 29-04-2014 00:00:00 13.43403 C 10.52 g/m*3 13.43 C 1.52569 km/h
55 30-04-2014 00:00:00 14.53507 C 10.56 g/m*3 14.54 C 2.55104 km/h
56 01-05-2014 00:00:00 14.73611 C 10.27 g/m*3 14.74 C 2.21319 km/h
57 02-05-2014 00:00:00 11.71319 C 9.07 g/m*3 11.71 C 6.17083 km/h
58 03-05-2014 00:00:00 10.92708 C 6.08 g/m*3 10.11 C 7.92431 km/h
59 04-05-2014 00:00:00 9.61042 C 6.24 g/m*3 9.61 C 2.69861 km/h
60 05-05-2014 00:00:00 12.60069 C 7.47 g/m*3 12.6 C 2.60382 km/h
61 06-05-2014 00:00:00 13.72083 C 8.81 g/m*3 13.72 C 4.4684 km/h
62 07-05-2014 00:00:00 13.05764 C 9.67 g/m*3 13.06 C 5.52396 km/h
63 08-05-2014 00:00:00 12.32847 C 9.2 g/m*3 12.33 C 7.67813 km/h
64 09-05-2014 00:00:00 15.33403 C 9.3 g/m*3 15.33 C 12.70556 km/h
65 10-05-2014 00:00:00 12.40903 C 8.93 g/m*3 12.41 C 6.08507 km/h
66 11-05-2014 00:00:00 11.45764 C 8.26 g/m*3 11.46 C 10.28576 km/h
67 12-05-2014 00:00:00 11.1941 C 7.59 g/m*3 11.19 C 10.12257 km/h
68 13-05-2014 00:00:00 10.30729 C 8.18 g/m*3 10.31 C 4.77569 km/h
69 14-05-2014 00:00:00 10.63542 C 7.53 g/m*3 10.17 C 6.11493 km/h
70 15-05-2014 00:00:00 10.00382 C 7.56 g/m*3 9.61 C 5.49063 km/h
71 16-05-2014 00:00:00 13.25347 C 8.42 g/m*3 13.25 C 5.19688 km/h
72 17-05-2014 00:00:00 14.22292 C 8.77 g/m*3 14.22 C 3.88333 km/h
73 18-05-2014 00:00:00 15.4809 C 9.81 g/m*3 15.48 C 1.92535 km/h
74 19-05-2014 00:00:00 17.57188 C 10.58 g/m*3 17.57 C 2.8941 km/h
75 20-05-2014 00:00:00 19.46562 C 11.28 g/m*3 19.47 C 3.35313 km/h
Sensor: Nr:Datum:Temp:Abs-Feuchte:Windchill:Wind:
Aussen-T/F 76 21-05-2014 00:00:00 20.29792 C 11.98 g/m*3 20.3 C 2.18715 km/h
77 22-05-2014 00:00:00 20.21806 C 11.51 g/m*3 20.22 C 4.67361 km/h
78 23-05-2014 00:00:00 15.52639 C 11.87 g/m*3 15.53 C 1.81319 km/h
79 24-05-2014 00:00:00 14.72993 C 10.24 g/m*3 14.73 C 5.49754 km/h
80 25-05-2014 00:00:00 15.25071 C 9.75 g/m*3 15.25 C 2.37411 km/h
81 26-05-2014 00:00:00 16.8625 C 11.52 g/m*3 16.86 C 2.50868 km/h
82 27-05-2014 00:00:00 15.19431 C 12.29 g/m*3 15.19 C 2.46682 km/h
83 28-05-2014 00:00:00 14.58118 C 11.05 g/m*3 14.58 C 0.88824 km/h
84 29-05-2014 00:00:00 13.44653 C 10.15 g/m*3 13.45 C 4.20903 km/h
85 30-05-2014 00:00:00 13.2316 C 8.1 g/m*3 13.23 C 6.4316 km/h
86 31-05-2014 00:00:00 13.40382 C 8.63 g/m*3 13.4 C 2.3309 km/h
87 01-06-2014 00:00:00 15.49273 C 9.2 g/m*3 15.49 C 3.79127 km/h
88 02-06-2014 00:00:00 15.88943 C 9.2 g/m*3 15.89 C 2.67439 km/h
89 03-06-2014 00:00:00 15.78662 C 10.07 g/m*3 15.79 C 1.66056 km/h
90 04-06-2014 00:00:00 14.95388 C 11.05 g/m*3 14.95 C 1.76849 km/h
91 05-06-2014 00:00:00 14.55765 C 8.46 g/m*3 14.56 C 9.30569 km/h
92 06-06-2014 00:00:00 17.20312 C 9.93 g/m*3 17.2 C 3.06146 km/h

Maximal/Minimal-Werte vom 07.03.2014 - 06.06.2014

Sensor Min Max Avg
Temp
(Aussen-T/F)
-0.9 °C
07-03-2014  07:55:00
30.1 °C
20-05-2014  16:00:00
12.26 °C
Abs-Feuchte
(Aussen-T/F)
5.2 g/m*3
26-03-2014  00:00:00
12.29 g/m*3
27-05-2014  00:00:00
8.24 g/m*3
Windchill
(Aussen-T/F)
4.16 C
25-03-2014  00:00:00
20.3 C
21-05-2014  00:00:00
12 C

Die Daten stammen von einer Davis Vantage Pro 2 Wetter-Station und werden unter Linux mit der Software wview2wettercgi und aufbereitet. Alle Angaben erfolgen ohne Gewähr für ihre Vollständigkeit oder Richtigkeit.
Kontakt: Rainer Krienke krienke@uni-koblenz.de . Meine Webseiten an der Uni Koblenz oder privat.
Version: $Revision: 0.78 $